sat.trackr.live / text

‹ back to catalog

STARLINK-11182 [DTC]

NORAD 60399 · 2024-141B

PAYLOAD ACTIVE UNKNOWN

§ Identity

Operator
Country
US
Launch date
2024-08-10
Launch site
AFETR
Launch vehicle
Mass (kg)
RCS (m²)

Purposes: comms

External: N2YO · Heavens-Above · Gunter

§ Orbital elements

Epoch: 2026-09-21T05:01:47.895168Z

Period
91.74 min
Inclination
53.1589°
Eccentricity
0.0001023
Mean motion
15.69689869 rev/d
Perigee alt
359.1 km
Apogee alt
360.5 km
Semi-major
6,737.9 km
B*
-1.3248e-5
RAAN
202.2629°
Arg perigee
101.5862°
Mean anomaly
258.5271°
Rev number
12,245

§ Raw data

STARLINK-11182 [DTC]1 60399U 24141B   26264.20958212 -.00002192  00000+0 -13248-4 0  99952 60399  53.1589 202.2629 0001023 101.5862 258.5271 15.69689869122453

JSON: /api/v1/satellites/60399 · /tle

For live sub-satellite position, see the globe view (requires WebGL).

§ Visibility from observer

Set your observer location to see the next 7 days of passes ≥ 10°. The values pass through the URL so the page stays shareable.

No JS? Fill the form by hand. The geolocation button needs JavaScript.